Overview Statistics Trail Chart Weather Telemetry Raw packets
 

This is the latest recevied weather packets stored in our database for station/object SV9FBP-13. If no packets are shown the sender has not sent any weather packets the latest 10 day(s).

<< 11 12 13 14 15 16 17 >>
Time Temp. Humidity Pressure Rain* Wind** Luminosity Snow
1788378604 28.33° C 38% 1009.5 hPa 0 mm - - -
1788377702 28.33° C 40% 1009.7 hPa 0 mm - - -
1788376801 28.89° C 35% 1009.7 hPa 0 mm - - -
1788375898 28.89° C 33% 1009.7 hPa 0 mm - - -
1788374996 28.89° C 32% 1009.7 hPa 0 mm - - -
1788374094 28.89° C 36% 1009.5 hPa 0 mm - - -
1788373192 28.89° C 36% 1009.6 hPa 0 mm - - -
1788372289 28.89° C 40% 1009.5 hPa 0 mm - - -
1788371387 28.89° C 42% 1009.3 hPa 0 mm - - -
1788370485 28.89° C 44% 1009.2 hPa 0 mm - - -
1788369583 28.89° C 44% 1009 hPa 0 mm - - -
1788368681 29.44° C 43% 1008.9 hPa 0 mm - - -
1788367779 29.44° C 43% 1008.8 hPa 0 mm - - -
1788366876 30° C 43% 1009 hPa 0 mm - - -
1788365975 30.56° C 41% 1009.1 hPa 0 mm - - -
1788365073 32.22° C 40% 1009.2 hPa 0 mm - - -
1788364170 32.78° C 39% 1009 hPa 0 mm - - -
1788363268 33.33° C 36% 1009.2 hPa 0 mm - - -
1788362366 33.33° C 36% 1009.1 hPa 0 mm - - -
1788361464 34.44° C 35% 1009.1 hPa 0 mm - - -
1788360561 34.44° C 34% 1009.1 hPa 0 mm - - -
1788359659 33.89° C 33% 1009.1 hPa 0 mm - - -
1788358757 33.89° C 35% 1009.3 hPa 0 mm - - -
1788357855 33.89° C 38% 1009.5 hPa 0 mm - - -
1788356954 33.89° C 38% 1009.4 hPa 0 mm - - -

* Rain latest hour (hover to see other rain measurements)
** Current wind speed in m/s (hover to see current wind gust speed)